Probability
8 7 8 10 10 10 11 13 13 12 11 11 10 10 12 12 10 6 5 5 4 3 3 4 5 4 4 3 3 3 3 2 1 0 0 0 0 0 0 0 0 0 0
9 8 9 10 10 10 11 12 12 12 11 10 10 10 10 11 8 5 4 4 3 2 2 4 5 5 5 3 2 3 3 2 1 0 0 0 0 0 0 0 0 0 0
7 8 9 10 10 10 9 9 10 10 11 10 9 8 8 7 5 4 3 3 2 2 3 3 4 5 5 4 2 3 3 2 0 0 0 0 0 0 0 0 0 0 0
6 8 9 9 9 8 7 7 7 9 10 10 7 6 6 4 2 2 2 2 1 2 4 4 3 3 5 5 3 3 2 1 0 0 0 0 0 0 0 0 0 0 0
6 7 8 6 5 5 5 4 6 7 8 7 5 4 4 2 0 1 1 1 0 1 3 4 2 1 3 4 3 3 2 1 0 0 0 0 0 0 0 0 0 0 0
6 6 5 4 4 4 3 3 4 5 5 3 2 2 2 1 0 0 0 0 0 1 2 3 2 1 2 2 3 3 2 1 0 0 0 0 0 0 0 0 0 0 0
5 4 3 3 3 2 1 2 2 3 3 2 1 1 1 0 0 0 0 0 1 1 2 3 3 2 1 1 3 3 3 2 0 0 0 0 0 0 0 0 0 0 0
2 2 2 2 2 1 1 1 2 2 1 1 0 0 0 0 0 0 0 1 2 2 3 3 3 2 1 1 2 3 3 1 0 0 0 0 0 0 0 0 0 0 0
0 1 1 1 1 1 1 2 3 2 1 0 0 0 0 0 0 0 0 1 2 2 2 2 2 1 1 2 3 4 3 1 1 1 1 0 0 0 0 0 0 0 0
0 0 0 0 0 1 2 3 3 1 0 0 0 0 0 0 0 0 0 0 1 1 1 1 1 1 2 3 3 4 2 1 1 2 2 1 1 0 0 0 0 0 0
0 0 0 0 0 0 1 2 2 1 0 0 0 0 0 0 0 0 0 0 0 0 1 2 2 3 4 3 3 3 1 0 1 3 3 3 2 1 1 0 0 0 0
0 0 0 0 0 0 0 1 1 0 0 0 0 0 0 0 0 0 0 0 0 0 1 2 3 4 5 4 3 1 1 1 1 2 3 3 3 3 2 1 1 0 0
0 0 0 0 0 0 0 0 0 0 0 0 0 0 0 0 0 0 0 0 0 0 1 1 2 3 4 4 3 2 2 2 2 3 3 3 3 3 3 3 2 1 0
0 0 0 0 0 0 0 0 0 0 0 0 0 0 0 0 0 0 0 0 0 0 0 0 1 1 2 3 3 2 2 3 3 3 3 3 3 3 3 3 2 1 0
0 0 0 0 0 0 0 0 0 0 0 0 0 0 0 0 0 0 0 0 0 0 0 0 0 1 2 3 3 3 3 3 3 3 3 3 2 2 2 2 2 1 0
0 0 0 0 0 0 0 0 0 0 0 0 0 0 0 0 0 0 0 0 0 0 0 0 0 1 2 2 2 2 3 3 3 3 2 1 1 1 1 1 1 0 0
0 0 0 0 0 0 0 0 0 0 0 0 0 0 0 0 0 0 0 0 0 0 0 0 0 1 1 1 0 1 3 3 3 4 3 1 0 0 0 0 0 0 0
0 0 0 0 0 0 0 0 0 0 0 0 0 0 0 0 0 0 0 0 0 0 0 0 0 0 1 0 0 1 2 3 3 3 3 1 0 0 0 0 0 0 0
0 0 0 0 0 0 0 0 0 0 0 0 0 0 0 0 0 0 0 0 0 0 0 0 0 1 1 1 0 1 2 3 3 3 1 1 0 0 0 0 0 0 0
0 0 0 0 0 0 0 0 0 0 0 0 0 0 0 0 0 0 0 0 0 0 0 0 0 1 2 1 0 1 2 3 3 3 1 0 0 0 0 0 0 0 0
0 0 0 0 0 0 0 0 0 0 0 0 0 0 0 0 0 0 0 0 0 0 0 0 0 1 2 1 0 1 2 3 3 3 2 1 0 0 0 0 0 0 0
0 0 0 0 0 0 0 0 0 0 0 0 0 0 0 0 0 0 0 0 0 0 0 0 0 1 1 0 0 0 1 2 3 3 2 1 0 0 0 0 0 0 0
0 0 0 0 0 0 0 0 0 0 0 0 0 0 0 0 0 0 0 0 0 0 0 0 0 0 0 0 0 0 0 1 2 2 1 0 0 0 0 0 0 0 0
0 0 0 0 0 0 0 0 0 0 0 0 0 0 0 0 0 0 0 0 0 0 0 0 0 0 0 0 0 0 0 0 1 1 0 0 0 0 0 0 0 0 0
0 0 0 0 0 0 0 0 0 0 0 0 0 0 0 0 0 0 0 0 0 0 0 0 0 0 0 0 0 0 0 0 0 0 0 0 0 0 0 0 0 0 0
0 0 0 0 0 0 0 0 0 0 0 0 0 0 0 0 0 0 0 0 0 0 0 0 0 0 0 0 0 0 0 0 0 0 0 0 0 0 0 0 0 0 0
Wind_Speed
3 3 3 3 4 4 4 4 4 3 2 2 1 1 1 1 1 1 2 2 2 2 2 2 2 2 2 1 1 1 1 0 1 1 2 2 1 1 1 1 1 2 3
4 4 4 4 3 3 3 3 3 2 2 1 1 1 2 1 1 1 1 1 2 2 2 3 2 2 1 1 1 2 1 0 1 1 1 2 3 2 2 2 2 3 3
2 2 3 3 4 3 2 2 2 2 2 2 2 2 2 2 1 1 1 1 1 1 1 2 2 2 2 2 1 2 2 1 0 1 2 1 2 3 3 2 2 3 2
2 2 3 3 3 2 2 2 2 2 2 2 2 3 1 1 0 1 1 1 1 1 1 2 2 2 2 2 2 2 2 3 1 0 0 1 2 1 2 3 2 3 3
2 2 2 1 2 2 2 1 2 2 2 2 1 2 2 1 1 1 2 1 1 1 1 2 2 2 1 1 1 1 2 2 2 2 1 1 0 1 2 3 4 3 3
3 2 2 2 2 2 2 2 2 1 1 1 0 2 3 2 2 1 1 1 1 1 0 1 2 2 1 2 2 2 2 2 2 2 2 2 2 2 2 3 4 4 4
2 2 2 2 2 1 1 1 1 1 0 1 1 2 3 3 3 2 2 1 0 0 1 1 1 1 2 2 2 2 2 2 2 3 2 3 3 2 2 2 3 3 4
2 1 1 1 1 1 1 0 1 0 1 1 1 1 2 2 2 2 2 2 1 1 1 1 1 1 1 1 1 1 2 2 2 3 3 3 3 3 3 3 2 3 3
3 3 2 2 2 2 1 1 1 0 1 1 1 1 2 2 2 1 1 1 1 1 1 0 0 1 1 1 1 1 2 2 3 3 3 3 3 2 3 3 3 3 4
4 3 3 2 2 2 1 0 1 2 1 1 1 1 1 2 2 1 1 1 1 1 1 1 1 1 1 1 1 1 2 2 2 2 2 3 2 2 3 3 3 4 4
4 4 4 3 2 2 1 0 1 1 0 1 1 1 1 1 1 1 1 1 1 1 1 2 1 1 1 1 1 2 2 3 3 2 3 4 3 3 3 3 3 4 4
4 5 4 3 3 3 2 1 0 1 1 1 1 1 1 1 1 1 1 1 1 1 1 1 1 1 1 1 1 2 2 3 3 3 3 4 3 3 3 3 4 4 4
5 5 5 4 3 3 2 2 1 1 1 1 1 1 1 1 0 1 0 0 1 1 1 0 1 1 1 1 2 2 2 2 3 3 4 4 3 4 3 4 4 4 4
4 4 4 4 3 3 3 2 2 1 1 1 1 1 1 1 1 1 0 1 0 0 1 0 0 1 1 1 2 2 2 2 3 3 3 4 4 4 4 4 4 4 4
5 4 4 4 3 3 3 3 2 1 0 1 1 1 1 1 0 0 0 0 0 0 1 1 1 1 1 1 1 1 1 2 3 3 3 3 4 5 4 3 4 3 4
5 5 4 4 3 3 3 3 2 2 1 1 1 1 1 1 0 0 0 1 1 1 1 1 1 1 2 2 3 2 2 2 2 3 4 4 3 4 5 6 6 5 4
5 5 4 3 3 3 2 2 2 1 1 0 0 0 1 1 0 1 1 1 0 1 1 1 1 2 3 3 3 3 1 2 2 3 3 3 3 4 4 5 6 5 5
5 4 4 4 3 3 2 1 1 1 1 1 1 1 1 1 0 1 1 0 0 0 0 1 1 2 3 4 3 3 2 2 2 3 3 3 4 4 4 4 4 5 5
4 3 3 3 2 3 2 2 2 2 2 1 1 0 1 1 1 1 0 0 1 1 1 1 2 2 4 4 3 2 1 2 3 3 3 3 4 5 5 3 4 5 5
3 3 3 2 2 2 2 2 2 2 1 1 1 0 1 1 1 1 0 0 0 1 1 2 2 2 3 4 3 2 1 2 3 3 3 4 4 6 5 2 2 4 5
3 3 3 2 2 2 2 2 2 2 2 1 1 1 1 1 1 0 0 0 0 1 1 2 2 2 3 3 3 3 1 1 2 3 3 4 6 6 5 3 2 4 5
4 3 3 3 3 2 2 2 2 2 2 2 2 2 2 1 1 1 0 0 0 1 1 2 3 3 2 2 3 3 2 1 1 2 3 4 6 6 5 3 4 5 4
2 2 2 2 3 2 1 1 2 2 2 2 2 2 2 1 1 0 0 1 0 0 1 1 2 3 3 3 4 4 3 3 1 2 4 5 6 5 4 4 5 4 3
2 2 2 2 3 2 1 1 2 1 1 1 2 1 1 1 1 0 0 0 1 1 1 1 2 2 3 3 3 3 2 3 2 3 4 5 4 4 4 5 4 3 3
2 1 1 1 2 2 2 2 1 1 1 1 2 2 1 1 1 1 1 1 2 3 2 2 2 1 3 4 3 2 2 2 2 2 2 3 3 4 4 4 4 4 4
1 1 1 2 2 2 2 2 1 0 1 1 1 1 1 1 1 1 2 1 2 3 3 4 3 2 4 4 4 3 3 3 2 1 2 3 3 4 4 4 4 4 4
Wind_Direction
34 44 56 61 66 69 74 78 87 90 105 120 141 149 159 149 133 137 145 158 161 175 175 172 155 145 150 173 165 139 126 95 78 58 356 339 332 317 298 294 303 309 302
33 39 44 47 60 75 72 71 84 96 105 120 144 155 135 141 144 114 99 127 147 172 176 158 159 158 146 134 145 131 133 93 88 107 70 344 336 333 319 303 288 300 304
32 40 43 37 46 56 73 92 98 90 66 62 80 82 78 66 72 107 131 115 129 138 140 155 158 159 160 177 189 170 156 159 88 111 141 156 256 311 317 314 307 311 305
41 48 49 32 22 24 43 85 98 86 75 71 85 104 123 158 172 123 120 92 105 137 139 148 155 157 165 176 193 170 164 154 170 349 122 181 177 213 307 316 314 313 302
38 50 49 42 29 27 25 51 88 76 77 85 106 125 128 165 105 89 88 64 56 103 140 147 153 162 174 180 171 159 164 164 172 179 184 181 170 203 220 289 311 320 304
19 29 36 35 26 23 26 42 77 61 72 89 61 163 160 163 138 124 132 89 29 6 78 148 160 177 187 192 193 187 185 190 181 187 188 189 199 209 208 247 281 297 298
24 21 19 23 12 8 20 36 76 69 127 154 200 187 170 174 177 179 169 153 103 313 264 189 193 194 202 200 191 189 205 205 201 210 215 217 219 202 199 224 261 278 289
6 4 346 345 343 336 326 227 100 331 255 209 209 180 170 171 186 177 174 180 189 223 247 228 222 219 219 212 191 201 223 215 222 230 225 229 233 212 203 208 228 280 287
343 344 334 336 340 318 289 244 173 196 233 228 220 148 151 164 172 176 170 182 196 220 247 243 250 249 236 216 186 217 238 237 235 238 234 236 241 229 225 218 210 228 277
344 334 332 336 322 289 280 255 213 219 213 203 192 170 161 181 171 150 166 198 214 218 248 255 235 230 234 219 200 237 242 234 247 240 244 249 246 242 232 226 226 221 236
333 330 335 336 335 337 329 343 261 249 211 178 165 152 147 158 139 152 199 197 198 210 226 237 221 225 251 253 234 252 255 250 259 260 251 261 252 246 244 236 233 231 225
339 344 350 356 3 354 347 346 281 250 243 188 146 158 147 122 128 209 229 192 195 217 223 220 214 251 274 277 262 266 268 260 262 265 262 267 263 259 256 246 248 245 231
347 352 354 360 3 353 344 342 326 288 247 186 157 152 139 143 206 261 277 253 223 250 258 215 246 269 286 281 273 263 268 274 271 270 268 268 262 269 267 259 258 261 259
345 347 346 345 347 343 345 344 333 313 239 161 152 172 194 184 218 251 268 273 255 291 326 7 299 281 288 283 288 294 300 303 296 286 274 267 257 259 269 272 269 273 277
343 340 337 334 336 339 346 351 340 334 16 127 156 197 207 184 183 270 278 308 25 32 36 41 349 299 281 280 293 307 303 299 302 303 291 279 277 276 273 274 275 276 276
332 338 339 337 335 331 336 344 336 333 55 122 194 205 164 130 94 282 48 62 55 42 46 23 307 306 301 312 310 305 293 299 300 305 311 312 312 312 305 295 283 268 264
329 333 335 331 318 312 313 314 312 351 60 107 131 94 123 138 188 164 96 83 62 65 38 337 329 314 312 318 322 330 315 300 299 298 304 315 322 325 319 317 316 306 287
326 327 334 337 331 330 339 337 15 42 58 51 29 62 88 90 74 103 119 127 115 85 333 324 321 318 315 326 333 338 333 316 310 306 304 308 313 319 324 316 317 317 310
314 314 324 329 339 349 1 33 38 41 43 29 348 10 123 112 96 111 200 171 89 354 316 306 305 305 309 320 327 338 325 325 326 326 327 318 315 319 332 332 326 324 319
334 334 343 355 359 357 25 48 31 32 9 334 320 333 135 140 167 193 203 107 116 289 306 315 302 291 298 309 316 327 312 324 324 328 332 337 333 323 330 330 319 317 314
344 354 5 11 355 7 48 50 32 0 331 358 32 40 70 151 171 129 86 69 354 326 320 319 320 315 307 308 309 316 288 286 313 322 328 330 335 333 332 333 308 297 304
357 3 15 12 9 24 58 50 3 331 5 38 45 24 7 9 70 100 356 20 263 342 337 344 338 333 332 334 330 330 319 298 283 302 311 316 330 335 336 333 319 317 325
346 358 25 18 9 14 54 45 318 350 28 37 22 0 360 6 30 113 50 13 8 322 313 329 327 325 334 345 354 353 338 332 307 298 310 322 334 338 338 333 334 342 349
338 356 21 16 352 348 356 304 314 12 53 29 347 343 352 346 356 8 183 203 262 280 290 298 305 313 321 327 340 346 345 348 353 348 343 346 352 357 346 345 349 351 340
314 340 338 319 313 326 331 327 340 59 57 12 349 344 333 336 344 349 277 235 234 218 223 244 242 273 304 300 309 324 327 328 331 343 354 3 1 1 356 352 351 349 349
295 314 308 306 307 317 317 318 325 90 96 14 338 327 331 334 338 335 336 312 263 286 254 237 230 249 257 286 308 319 325 331 345 34 10 358 351 345 343 343 344 345 344